Location: Newark
(11.2914°S, 14.4718°E)
Time: 19:33:25
(UTC+00:00)

Vanguard 2 - Pass Details

Date: 20 September 2019
Orbit: 554 x 2937 km, 32.9° (Epoch: 22 October)

Event Time Altitude Azimuth Distance (km) Brightness Sun altitude
Rises 20:22:38 0° 235° (SW) 5,790 12.6 -50.7°
Reaches altitude 10° 20:26:03 10° 233° (SW) 5,031 12.1 -51.5°
Enters shadow 20:37:26 58° 213° (SSW) 3,141 10.4 -54.2°
